GW2321 Weather Reports


time (UTC)temp
C
wind
direction
speed
KPH
gust
KPH
rain 1hr
cm
rain 24hr
cm
rain mn
cm
humidity
%
barometer
mb
20260506204537 27 242 3.2 11.3 0.00 0.00 0.00 29 1011.7
20260506203046 27 0 4.8 16.1 0.00 0.00 0.00 27 1011.8
20260506201543 27 0 4.8 16.1 0.00 0.00 0.00 31 1011.8
20260506200101 27 212 3.2 9.7 0.00 0.00 0.00 34 1012.0
20260506194539 26 202 3.2 11.3 0.00 0.00 0.00 29 1012.1
20260506193037 26 0 1.6 16.1 0.00 0.00 0.00 29 1012.3
20260506191546 25 228 0.0 16.1 0.00 0.00 0.00 29 1012.5
20260506190045 23 216 0.0 11.3 0.00 0.00 0.00 28 1012.7
20260506184551 24 215 0.0 11.3 0.00 0.00 0.00 30 1012.9
20260506183039 24 193 4.8 12.9 0.00 0.00 0.00 30 1012.9
20260506181539 22 235 0.0 12.9 0.00 0.00 0.00 32 1013.0
20260506180046 22 228 1.6 11.3 0.00 0.00 0.00 30 1013.0
20260506174543 22 217 3.2 12.9 0.00 0.00 0.00 30 1013.1
20260506173046 21 203 4.8 12.9 0.00 0.00 0.00 33 1013.2
20260506171550 20 0 4.8 16.1 0.00 0.00 0.00 31 1013.1
20260506170044 20 0 0.0 4.8 0.00 0.00 0.00 32 1013.4
20260506164544 18 0 0.0 3.2 0.00 0.00 0.00 32 1013.4
20260506163049 17 0 0.0 1.6 0.00 0.00 0.00 34 1013.8
20260506161548 16 0 0.0 3.2 0.00 0.00 0.00 37 1013.8
20260506160043 15 0 0.0 1.6 0.00 0.00 0.00 44 1013.7
20260506154545 13 0 0.0 0.0 0.00 0.00 0.00 47 1013.6
20260506153042 12 0 0.0 0.0 0.00 0.00 0.00 48 1013.9
20260506151538 11 0 0.0 0.0 0.00 0.00 0.00 55 1013.7
20260506150048 10 0 0.0 0.0 0.00 0.00 0.00 58 1013.9
20260506144545 8 0 0.0 0.0 0.00 0.00 0.00 59 1013.8
20260506143042 7 0 0.0 0.0 0.00 0.00 0.00 61 1013.7
20260506141541 7 0 0.0 0.0 0.00 0.00 0.00 60 1013.8
20260506140045 6 0 0.0 0.0 0.00 0.00 0.00 61 1013.9
20260506134607 5 0 0.0 0.0 0.00 0.00 0.00 60 1013.6
20260506133038 5 0 0.0 1.6 0.00 0.00 0.00 60 1013.6
20260506131546 4 0 0.0 0.0 0.00 0.00 0.00 62 1013.7
20260506130045 4 0 0.0 0.0 0.00 0.00 0.00 62 1013.4
20260506124543 4 0 0.0 0.0 0.00 0.00 0.00 63 1013.1
20260506123044 4 0 0.0 0.0 0.00 0.00 0.00 63 1013.0
20260506121539 4 0 0.0 0.0 0.00 0.00 0.00 63 1013.1
20260506120048 4 0 0.0 0.0 0.00 0.00 0.00 64 1013.0
20260506114548 5 0 0.0 1.6 0.00 0.00 0.00 66 1012.8
20260506113043 5 0 0.0 0.0 0.00 0.00 0.00 66 1012.7
20260506111544 5 0 0.0 0.0 0.00 0.00 0.00 66 1012.7
20260506110041 5 0 0.0 0.0 0.00 0.00 0.00 65 1012.9
20260506104541 6 0 0.0 0.0 0.00 0.00 0.00 66 1012.8
20260506103037 6 0 0.0 0.0 0.00 0.00 0.00 65 1012.7
20260506101546 6 0 0.0 0.0 0.00 0.00 0.00 66 1012.7
20260506100036 6 0 0.0 0.0 0.00 0.00 0.00 66 1012.7
20260506094542 6 0 0.0 1.6 0.00 0.00 0.00 65 1012.7
20260506093038 6 0 0.0 0.0 0.00 0.00 0.00 65 1012.8
20260506091541 6 0 0.0 0.0 0.00 0.00 0.00 64 1012.9
20260506090038 6 0 0.0 0.0 0.00 0.00 0.00 63 1012.6
20260506084537 7 0 0.0 0.0 0.00 0.00 0.00 62 1012.5
20260506083037 7 0 0.0 0.0 0.00 0.00 0.00 61 1012.6
20260506081547 7 0 0.0 0.0 0.00 0.00 0.00 61 1012.4
20260506073039 8 0 0.0 0.0 0.00 0.00 0.00 59 1012.2
20260506071548 9 0 0.0 1.6 0.00 0.00 0.00 53 1012.0
20260506061541 10 0 0.0 3.2 0.00 0.00 0.00 54 1012.0
20260506044540 12 0 0.0 4.8 0.00 0.00 0.00 44 1011.2
20260506043038 13 0 0.0 3.2 0.00 0.00 0.00 45 1011.1
20260506041548 15 0 0.0 1.6 0.00 0.00 0.00 34 1011.1
20260506040042 16 0 0.0 0.0 0.00 0.00 0.00 30 1011.0
20260506034542 16 0 0.0 3.2 0.00 0.00 0.00 31 1010.8
20260506033039 17 32 1.6 4.8 0.00 0.00 0.00 31 1010.7
20260506031540 18 68 3.2 6.4 0.00 0.00 0.00 27 1010.8
20260506030044 20 105 3.2 11.3 0.00 0.00 0.00 21 1010.4
20260506024551 20 0 3.2 9.7 0.00 0.00 0.00 21 1010.6
20260506023041 20 52 1.6 8.0 0.00 0.00 0.00 24 1010.7
20260506021538 21 0 0.0 0.0 0.00 0.00 0.00 22 1010.8
20260506020040 21 0 0.0 4.8 0.00 0.00 0.00 23 1010.8
20260506014537 22 0 0.0 3.2 0.00 0.00 0.00 22 1010.9
20260506013043 23 50 0.0 6.4 0.00 0.00 0.00 17 1010.9
20260506011609 23 235 0.0 1.6 0.00 0.00 0.00 16 1010.9
20260506010047 23 0 0.0 4.8 0.00 0.00 0.00 22 1011.1
20260506004557 24 234 0.0 4.8 0.00 0.00 0.00 17 1011.1
20260506003039 24 0 0.0 3.2 0.00 0.00 0.00 18 1011.3
20260506001542 25 0 0.0 8.0 0.00 0.00 0.00 18 1011.1
20260506000111 25 221 0.0 9.7 0.00 0.00 0.00 18 1011.1
20260505234548 25 0 0.0 4.8 0.00 0.00 0.00 17 1011.5
20260505233042 23 0 0.0 12.9 0.00 0.00 0.00 16 1011.4
20260505231540 23 48 1.6 11.3 0.00 0.00 0.00 16 1011.6
20260505230101 23 40 1.6 16.1 0.00 0.00 0.00 15 1011.6
20260505224541 23 103 3.2 16.1 0.00 0.00 0.00 15 1011.9
20260505223044 22 5 6.4 16.1 0.00 0.00 0.00 16 1011.9
20260505221551 22 111 3.2 19.3 0.00 0.00 0.00 16 1012.0
20260505220044 23 115 3.2 14.5 0.00 0.00 0.00 18 1012.2
20260505214539 23 355 4.8 11.3 0.00 0.00 0.00 16 1012.1
20260505213044 23 5 3.2 12.9 0.00 0.00 0.00 15 1012.5
20260505211541 22 0 1.6 19.3 0.00 0.00 0.00 15 1012.6
20260505210044 22 48 8.0 22.5 0.00 0.00 0.00 19 1012.7